Hourly Weather Khiva

Today, 23 April, Friday

Time Temperature Precipitation Wind Pressure Humidity
00:00 +17°C° 0 mm 6 mps 757 mmHg 11%
01:00 +16°C° 0 mm 5 mps 757 mmHg 13%
02:00 +15°C° 0 mm 5 mps 757 mmHg 16%
03:00 +15°C° 0 mm 5 mps 757 mmHg 19%
04:00 +14°C° 0 mm 5 mps 757 mmHg 22%
05:00 +14°C° 0 mm 6 mps 757 mmHg 23%
06:00 +15°C° 0 mm 6 mps 757 mmHg 24%
07:00 +15°C° 0 mm 7 mps 757 mmHg 25%
08:00 +17°C° 0 mm 7 mps 757 mmHg 23%
09:00 +20°C° 0 mm 7 mps 756 mmHg 21%
10:00 +22°C° 0 mm 7 mps 756 mmHg 18%
11:00 +24°C° 0 mm 7 mps 756 mmHg 16%
12:00 +27°C° 0 mm 6 mps 755 mmHg 13%
13:00 +28°C° 0 mm 6 mps 755 mmHg 11%
14:00 +29°C° 0 mm 5 mps 754 mmHg 10%
15:00 +29°C° 0 mm 4 mps 754 mmHg 9%
16:00 +30°C° 0 mm 4 mps 754 mmHg 8%
17:00 +29°C° 0 mm 4 mps 754 mmHg 9%
18:00 +28°C° 0 mm 3 mps 754 mmHg 9%
19:00 +27°C° 0 mm 3 mps 754 mmHg 10%
20:00 +27°C° 0 mm 3 mps 754 mmHg 10%
21:00 +26°C° 0 mm 3 mps 754 mmHg 10%
22:00 +26°C° 0 mm 4 mps 754 mmHg 10%
23:00 +25°C° 0 mm 4 mps 753 mmHg 10%

Tomorrow, 24 April, Saturday

Time Temperature Precipitation Wind Pressure Humidity
00:00 +25°C° 0 mm 3 mps 753 mmHg 11%
01:00 +25°C° 0 mm 3 mps 753 mmHg 11%
02:00 +24°C° 0 mm 3 mps 753 mmHg 11%
03:00 +23°C° 0 mm 4 mps 753 mmHg 12%
04:00 +23°C° 0 mm 4 mps 753 mmHg 12%
05:00 +23°C° 0 mm 4 mps 753 mmHg 23%
06:00 +22°C° 0 mm 5 mps 753 mmHg 33%
07:00 +22°C° 0 mm 5 mps 754 mmHg 43%
08:00 +25°C° 0 mm 5 mps 754 mmHg 37%
09:00 +26°C° 0 mm 5 mps 754 mmHg 31%
10:00 +28°C° 0 mm 5 mps 753 mmHg 24%
11:00 +29°C° 0 mm 5 mps 753 mmHg 21%
12:00 +30°C° 0 mm 5 mps 753 mmHg 17%
13:00 +32°C° 0 mm 5 mps 753 mmHg 14%
14:00 +32°C° 0 mm 5 mps 753 mmHg 13%
15:00 +33°C° 0 mm 4 mps 752 mmHg 12%
16:00 +33°C° 0 mm 4 mps 752 mmHg 12%
17:00 +32°C° 0 mm 4 mps 752 mmHg 13%
18:00 +30°C° 0 mm 5 mps 753 mmHg 14%
19:00 +28°C° 0 mm 5 mps 753 mmHg 15%
20:00 +27°C° 0 mm 6 mps 753 mmHg 19%
21:00 +24°C° 0 mm 6 mps 753 mmHg 23%
22:00 +22°C° 0 mm 6 mps 754 mmHg 27%
23:00 +21°C° 0 mm 6 mps 754 mmHg 29%

Day after tomorrow, 25 April, Sunday

Time Temperature Precipitation Wind Pressure Humidity
00:00 +21°C° 0 mm 5 mps 754 mmHg 31%
01:00 +20°C° 0 mm 5 mps 754 mmHg 32%
02:00 +19°C° 0 mm 4 mps 754 mmHg 32%
03:00 +19°C° 0 mm 4 mps 754 mmHg 32%
04:00 +18°C° 0 mm 4 mps 754 mmHg 31%
05:00 +19°C° 0 mm 5 mps 755 mmHg 30%
06:00 +19°C° 0 mm 5 mps 755 mmHg 28%
07:00 +20°C° 0 mm 6 mps 755 mmHg 27%
08:00 +22°C° 0 mm 5 mps 755 mmHg 23%
09:00 +25°C° 0 mm 5 mps 756 mmHg 20%
10:00 +27°C° 0 mm 5 mps 756 mmHg 17%
11:00 +28°C° 0 mm 4 mps 755 mmHg 15%
12:00 +29°C° 0 mm 4 mps 755 mmHg 14%
13:00 +30°C° 0 mm 3 mps 755 mmHg 13%
14:00 +30°C° 0 mm 4 mps 754 mmHg 13%
15:00 +32°C° 0 mm 4 mps 754 mmHg 13%
16:00 +32°C° 0 mm 4 mps 754 mmHg 13%
17:00 +30°C° 0 mm 3 mps 754 mmHg 14%
18:00 +29°C° 0 mm 3 mps 754 mmHg 14%
19:00 +28°C° 0 mm 3 mps 754 mmHg 15%
20:00 +28°C° 0 mm 3 mps 754 mmHg 15%
21:00 +27°C° 0 mm 4 mps 754 mmHg 15%
22:00 +26°C° 0 mm 4 mps 754 mmHg 15%
23:00 +25°C° 0 mm 4 mps 754 mmHg 16%

26 April, Monday

Time Temperature Precipitation Wind Pressure Humidity
00:00 +25°C° 0 mm 4 mps 754 mmHg 16%
01:00 +23°C° 0 mm 5 mps 753 mmHg 17%
02:00 +22°C° 0 mm 4 mps 753 mmHg 18%
03:00 +22°C° 0 mm 4 mps 753 mmHg 18%
04:00 +21°C° 0 mm 4 mps 753 mmHg 19%
05:00 +22°C° 0 mm 4 mps 753 mmHg 19%
06:00 +23°C° 0 mm 4 mps 753 mmHg 18%
07:00 +25°C° 0 mm 4 mps 753 mmHg 18%
08:00 +27°C° 0 mm 4 mps 753 mmHg 16%
09:00 +29°C° 0 mm 4 mps 753 mmHg 14%
10:00 +33°C° 0 mm 4 mps 752 mmHg 13%
11:00 +34°C° 0 mm 4 mps 752 mmHg 12%
12:00 +35°C° 0 mm 4 mps 751 mmHg 12%
13:00 +36°C° 0 mm 3 mps 751 mmHg 11%
14:00 +36°C° 0 mm 3 mps 750 mmHg 11%
15:00 +37°C° 0 mm 4 mps 750 mmHg 10%
16:00 +37°C° 0 mm 4 mps 750 mmHg 10%
17:00 +36°C° 0 mm 4 mps 749 mmHg 11%
18:00 +35°C° 0 mm 3 mps 749 mmHg 12%
19:00 +34°C° 0 mm 3 mps 749 mmHg 13%
20:00 +33°C° 0 mm 4 mps 749 mmHg 13%
21:00 +32°C° 0 mm 4 mps 749 mmHg 13%
22:00 +30°C° 0 mm 4 mps 749 mmHg 14%
23:00 +29°C° 0 mm 4 mps 749 mmHg 15%

27 April, Tuesday

Time Temperature Precipitation Wind Pressure Humidity
00:00 +28°C° 0 mm 4 mps 749 mmHg 16%
01:00 +27°C° 0 mm 5 mps 749 mmHg 17%
02:00 +27°C° 0 mm 5 mps 748 mmHg 17%
03:00 +26°C° 0 mm 4 mps 748 mmHg 18%
04:00 +26°C° 0 mm 4 mps 748 mmHg 19%
05:00 +26°C° 0 mm 5 mps 748 mmHg 18%
06:00 +27°C° 0 mm 5 mps 749 mmHg 17%
07:00 +27°C° 0 mm 5 mps 749 mmHg 17%
08:00 +29°C° 0 mm 5 mps 749 mmHg 15%
09:00 +32°C° 0 mm 5 mps 749 mmHg 13%
10:00 +35°C° 0 mm 6 mps 749 mmHg 12%
11:00 +36°C° 0 mm 5 mps 748 mmHg 11%
12:00 +37°C° 0 mm 4 mps 748 mmHg 9%
13:00 +38°C° 0 mm 4 mps 748 mmHg 8%
14:00 +38°C° 0 mm 3 mps 747 mmHg 8%
15:00 +38°C° 0 mm 3 mps 747 mmHg 8%
16:00 +38°C° 0 mm 2 mps 746 mmHg 8%
17:00 +37°C° 0 mm 2 mps 746 mmHg 8%
18:00 +36°C° 0 mm 2 mps 746 mmHg 8%
19:00 +35°C° 0 mm 2 mps 746 mmHg 9%
20:00 +34°C° 0 mm 3 mps 746 mmHg 9%
21:00 +33°C° 0 mm 3 mps 747 mmHg 10%
22:00 +31°C° 0 mm 3 mps 747 mmHg 10%
23:00 +32°C° 0 mm 4 mps 747 mmHg 10%

28 April, Wednesday

Time Temperature Precipitation Wind Pressure Humidity
00:00 +30°C° 0 mm 4 mps 747 mmHg 11%
01:00 +30°C° 0 mm 4 mps 747 mmHg 11%
02:00 +29°C° 0 mm 4 mps 747 mmHg 11%
03:00 +28°C° 0 mm 4 mps 747 mmHg 12%
04:00 +28°C° 0 mm 4 mps 747 mmHg 12%
05:00 +28°C° 0 mm 4 mps 747 mmHg 15%
06:00 +28°C° 0 mm 4 mps 748 mmHg 18%
07:00 +28°C° 0 mm 4 mps 748 mmHg 20%
08:00 +30°C° 0 mm 4 mps 748 mmHg 19%
09:00 +33°C° 0 mm 4 mps 748 mmHg 18%
10:00 +35°C° 0 mm 3 mps 748 mmHg 17%
11:00 +35°C° 0 mm 4 mps 748 mmHg 17%
12:00 +36°C° 0 mm 5 mps 748 mmHg 17%
13:00 +38°C° 0 mm 6 mps 748 mmHg 17%
14:00 +36°C° 0 mm 7 mps 748 mmHg 18%
15:00 +37°C° 0 mm 9 mps 749 mmHg 20%
16:00 +36°C° 0 mm 10 mps 749 mmHg 21%
17:00 +33°C° 0 mm 9 mps 750 mmHg 26%
18:00 +29°C° 0 mm 8 mps 750 mmHg 30%
19:00 +27°C° 0 mm 8 mps 751 mmHg 35%
20:00 +26°C° 0 mm 7 mps 751 mmHg 39%
21:00 +24°C° 0 mm 7 mps 752 mmHg 43%
22:00 +23°C° 0 mm 6 mps 752 mmHg 47%
23:00 +23°C° 0 mm 7 mps 752 mmHg 46%
Show more